Change the Weather History Date:

Thursday, June 6, 2013

  Actual Average Record
Temperature  
Mean Temperature 78 °F 80 °F  
Max Temperature 87 °F 90 °F 102 °F (2011)
Min Temperature 68 °F 69 °F 57 °F (1998)
Degree Days  
Heating Degree Days 0 0  
Month to date heating degree days 0 0  
Since 1 June heating degree days 0 0  
Since 1 July heating degree days 2023 2142  
Cooling Degree Days 13 15  
Month to date cooling degree days 86 84  
Year to date cooling degree days 503 536  
Since 1 June cooling degree days 86 84  
Growing Degree Days 28 (Base 50)    
Moisture  
Dew Point 67 °F    
Average Humidity 69    
Maximum Humidity 90    
Minimum Humidity 48    
Precipitation  
Precipitation 0.01 in 0.14 in 2.53 in (1985)
Month to date precipitation 0.37 0.85  
Year to date precipitation 14.46 15.74  
Sea Level Pressure  
Sea Level Pressure 29.84 in    
Wind  
Wind Speed 8 mph (North)    
Max Wind Speed 25 mph    
Max Gust Speed 30 mph    
Visibility 10 miles    
Events Rain , Thunderstorm    
T = Trace of Precipitation, MM = Missing Value Source: NWS Daily Summary

Daily Weather History Graph

Daily Weather History Graph

Search for Another Location

Airport or City:

Trip Planner

Search our weather history database for the weather conditions in past years. The results will help you decide how hot, cold, wet, or windy it might be!

Date:

Astronomy

Jun. 06, 2013 Rise Set
Actual Time 6:23 AM CDT 8:31 PM CDT
Civil Twilight 5:55 AM CDT 8:59 PM CDT
Nautical Twilight 5:21 AM CDT 9:33 PM CDT
Astronomical Twilight 4:45 AM CDT 10:10 PM CDT
Moon 4:59 AM CDT (6/6) 6:59 PM CDT (6/6)
Length of Visible Light 15h 04m
Length of Day
14h 08m
Waning Crescent, 3% of the Moon is Illuminated
Jun 6
Waning Crescent
Jun 8
New
Jun 16
First Quarter
Jun 23
Full
Jun 29
Last Quarter

Hourly Weather History & Observations

Time (CDT) Temp. Heat Index Dew Point Humidity Pressure Visibility Wind Dir Wind Speed Gust Speed Precip Events Conditions
12:51 AM 75.9 °F - 68.0 °F 76% 29.80 in 10.0 mi East 4.6 mph - N/A   Clear
1:51 AM 75.0 °F - 68.0 °F 79% 29.79 in 10.0 mi ESE 5.8 mph - N/A   Clear
2:51 AM 75.0 °F - 69.1 °F 82% 29.81 in 9.0 mi SE 3.5 mph - N/A   Scattered Clouds
3:51 AM 75.9 °F - 68.0 °F 76% 29.81 in 10.0 mi SSE 4.6 mph - N/A   Partly Cloudy
4:51 AM 77.0 °F - 69.1 °F 76% 29.80 in 10.0 mi SSW 8.1 mph - N/A   Overcast
5:11 AM 75.2 °F - 69.8 °F 83% 29.83 in 9.0 mi SSW 10.4 mph - N/A Thunderstorm Mostly Cloudy
5:38 AM 73.4 °F - 69.8 °F 88% 29.84 in 9.0 mi WNW 11.5 mph - 0.00 in Rain , Thunderstorm Light Thunderstorms and Rain
5:51 AM 72.0 °F - 69.1 °F 91% 29.83 in 10.0 mi NNW 5.8 mph 16.1 mph 0.00 in Rain , Thunderstorm Light Rain
6:31 AM 71.6 °F - 69.8 °F 94% 29.87 in 10.0 mi East 5.8 mph - 0.01 in   Mostly Cloudy
6:51 AM 71.1 °F - 69.1 °F 93% 29.84 in 10.0 mi North 9.2 mph - 0.01 in   Mostly Cloudy
7:02 AM 71.6 °F - 69.8 °F 94% 29.86 in 10.0 mi North 5.8 mph - N/A   Mostly Cloudy
7:15 AM 71.6 °F - 69.8 °F 94% 29.85 in 10.0 mi WNW 4.6 mph - N/A   Mostly Cloudy
7:51 AM 71.1 °F - 68.0 °F 90% 29.85 in 10.0 mi WNW 6.9 mph - N/A   Mostly Cloudy
8:51 AM 73.9 °F - 68.0 °F 82% 29.87 in 10.0 mi NNW 9.2 mph - N/A   Mostly Cloudy
9:51 AM 75.9 °F - 66.9 °F 74% 29.88 in 10.0 mi North 10.4 mph - N/A   Mostly Cloudy
10:35 AM 77.0 °F - 68.0 °F 74% 29.83 in 10.0 mi ESE 9.2 mph - N/A   Partly Cloudy
10:51 AM 79.0 °F - 66.9 °F 66% 29.83 in 10.0 mi Variable 3.5 mph - N/A   Clear
11:14 AM 82.4 °F 84.6 °F 66.2 °F 58% 29.88 in 10.0 mi WNW 15.0 mph 21.9 mph N/A   Clear
11:51 AM 82.9 °F 85.4 °F 66.9 °F 58% 29.83 in 10.0 mi Variable 3.5 mph - N/A   Clear
12:51 PM 86.0 °F 87.6 °F 64.9 °F 49% 29.85 in 10.0 mi NW 6.9 mph - N/A   Clear
1:51 PM 82.9 °F 85.4 °F 66.9 °F 58% 29.86 in 10.0 mi North 12.7 mph - N/A   Scattered Clouds
2:51 PM 82.9 °F 85.4 °F 66.9 °F 58% 29.84 in 10.0 mi North 15.0 mph 21.9 mph N/A   Partly Cloudy
3:51 PM 84.9 °F 87.1 °F 66.0 °F 53% 29.83 in 10.0 mi North 13.8 mph 26.5 mph N/A   Mostly Cloudy
4:51 PM 82.9 °F 85.0 °F 66.0 °F 56% 29.83 in 10.0 mi North 16.1 mph 26.5 mph 0.00 in   Clear
5:51 PM 81.0 °F 82.5 °F 64.0 °F 56% 29.84 in 10.0 mi NNE 16.1 mph 24.2 mph N/A   Partly Cloudy
6:51 PM 79.0 °F - 64.0 °F 60% 29.83 in 10.0 mi North 13.8 mph - N/A   Clear
7:51 PM 77.0 °F - 63.0 °F 62% 29.86 in 10.0 mi NNE 11.5 mph - N/A   Clear
8:51 PM 73.0 °F - 63.0 °F 71% 29.87 in 10.0 mi NNE 6.9 mph - N/A   Clear
9:51 PM 69.1 °F - 63.0 °F 81% 29.90 in 10.0 mi NNE 4.6 mph - N/A   Clear
10:51 PM 68.0 °F - 64.0 °F 87% 29.91 in 10.0 mi NNE 5.8 mph - N/A   Clear
11:51 PM 68.0 °F - 64.0 °F 87% 29.93 in 10.0 mi North 3.5 mph - N/A   Clear